AirNav   Air Wisconsin pilot careers
 
 1263 users online  

1M8 Myricks Airport
Berkley, Massachusetts, USA

GOING TO BERKLEY?


FAA INFORMATION EFFECTIVE 08 NOVEMBER 2018

Location

FAA Identifier: 1M8
Lat/Long: 41-50-20.6000N / 071-01-35.3000W
41-50.343333N / 071-01.588333W
41.8390556 / -71.0264722
(estimated)
Elevation: 73 ft. / 22.3 m (surveyed)
Variation: 16W (1985)
From city: 3 miles SE of BERKLEY, MA
Time zone: UTC -5 (UTC -4 during Daylight Saving Time)
Zip code: 02779

Airport Operations

Airport use: Open to the public
Activation date: 02/1946
Control tower: no
ARTCC: BOSTON CENTER
FSS: BRIDGEPORT FLIGHT SERVICE STATION
NOTAMs facility: BDR (NOTAM-D service available)
Attendance: DAYLIGHT HOURS
Wind indicator: yes
Segmented circle: no

Airport Communications

CTAF: 122.9
WX ASOS at TAN (2.2 nm N): 132.675 (508-824-5005)
WX ASOS at EWB (10 nm S): PHONE 508-992-0195
WX ASOS at PYM (14 nm E): 135.625 (508-746-8003)
WX ASOS at PVD (19 nm W): 124.2 (401-734-2818)

Nearby radio navigation aids

VOR radial/distance  VOR name  Freq  Var
PVDr083/19.3PROVIDENCE VOR/DME115.6014W
BOSr199/31.1BOSTON VOR/DME112.7016W
MVYr340/32.4MARTHAS VINEYARD VOR/DME114.5015W
PUTr115/37.2PUTNAM VOR/DME117.4014W

 
NDB name  Hdg/Dist  Freq  Var  ID
TAUNTON208/2.222716WTAN - .- -.
MARSHFIELD241/22.036816WIMR .. -- .-.
SHAKER HILL186/37.625116WSKR ... -.- .-.
PROVINCETOWN265/38.438916WPVC .--. ...- -.-.

Airport Services

Fuel available: 100LL
Parking: tiedowns
Airframe service: MINOR
Powerplant service: MINOR

Runway Information

Runway 9/27

Dimensions: 2466 x 50 ft. / 752 x 15 m
Surface: turf, in good condition
RUNWAY 9  RUNWAY 27
Latitude: 41-50.286795N41-50.398608N
Longitude: 071-01.848488W071-01.326457W
Elevation: 65.2 ft.72.9 ft.
Gradient: 0.3% UP
Traffic pattern: leftleft
Obstructions: 80 ft. tree, 400 ft. from runway, 130 ft. right of centerline, 5:1 slope to clear67 ft. trees, 200 ft. from runway, 125 ft. right of centerline, 3:1 slope to clear

Airport Ownership and Management from official FAA records

Ownership: Privately-owned
Owner: MURRAY RANDALL
168 PADELFORD STREET
BERKLEY, MA 02779
Phone 508-822-2457
Manager: MURRAY RANDALL
168 PADELFORD STREET
BERKLEY, MA 02779
Phone 508-822-2457

Airport Operational Statistics

Aircraft based on the field: 2
Single engine airplanes: 2
    
Aircraft operations: avg 46/week *
83% local general aviation
17% transient general aviation
<1% military
* for 12-month period ending 28 May 2015

Additional Remarks

TREES NORTH.
AERIAL BANNER PICKUP & DROP OPNS ON AND INVOF ARPT.
WILDLIFE ON AND IN THE VICINITY OF AIRPORT.
FOR CD CTC PROVIDENCE APCH AT 401-738-8945. IF UNA, CTC FSS.

Instrument Procedures

There are no published instrument procedures at 1M8.

Some nearby airports with instrument procedures:

KTAN - Taunton Municipal Airport - King Field (2 nm N)
KEWB - New Bedford Regional Airport (10 nm S)
1B9 - Mansfield Municipal Airport (12 nm NW)
KPYM - Plymouth Municipal Airport (14 nm E)
KPVD - Theodore Francis Green State Airport (19 nm W)
 
Loc | Ops | Rwys | IFR | FBO | Links
Com | Nav | Svcs | Stats | Notes


 
Area around 1M8 (Myricks Airport)
 
Road maps at: MapQuest Bing Google
 
Aerial photo
WARNING: Photo may not be current or correct
Aerial photo of 1M8 (Myricks Airport)
Photo by Barry Turner
Photo taken 01-Oct-2017
looking west.

Do you have a better or more recent aerial photo of Myricks Airport that you would like to share? If so, please send us your photo.

 
Sectional chart

 
Airport distance calculator
Flying to Myricks Airport? Find the distance to fly.

From to 1M8

Sunrise and sunset
Times for 21-Nov-2018
 Local
(UTC-5)
 Zulu
(UTC)
Morning civil twilight06:1111:11
Sunrise06:4211:42
Sunset16:1821:18
Evening civil twilight16:4921:49

Current date and time
Zulu (UTC)  21-Nov-2018 19:12:55
Local (UTC-5)  21-Nov-2018 14:12:55
 
METAR
KTAN 
3nm N 
211852Z AUTO 22009KT 10SM FEW090 OVC110 06/M04 A2988 RMK AO2 SLP118 T00561039
KEWB 
10nm S 
211853Z 25010G20KT 10SM OVC100 05/M03 A2989 RMK AO2 SLP121 T00501028
KPYM 
14nm E 
211852Z AUTO 24013KT 10SM BKN090 OVC110 05/M03 A2988 RMK AO2 SLP119 T00501028
KPVD 
20nm W 
211851Z 25015G24KT 10SM FEW030 BKN110 04/M04 A2990 RMK AO2 SLP125 T00441039
TAF
KPVD 
20nm W 
211738Z 2118/2218 25013G21KT P6SM BKN070 FM212200 27014G27KT P6SM VCSH BKN040 FM220000 29014G31KT P6SM SCT040 FM220200 30014G25KT P6SM FEW250 FM221300 32014G25KT P6SM SKC
NOTAMs
Click for the latest NOTAMs
NOTAMs are issued by the DoD/FAA and will open in a separate window not controlled by AirNav.

 

 
 

Would you like to see your business listed on this page?

 If your business provides an interesting product or service to pilots, flight crews, aircraft, or users of the Myricks Airport, you should consider listing it here.  To start the listing process, click on the button below
 
Add a business
 

Other Pages about Myricks Airport

Update a link
 
Copyright © AirNav, LLC. All rights reserved. Privacy Policy  Contact